OBJECT N, 44891

Orbit data source: Space-Track

You're viewing an Uncataloged Satellite

Recently launched and/or uncataloged satellites may have evolving metadata. Metadata may include but not limited to: Owner, Maufacturer, Bus, Motor, and Mission.

OBJECT N, 44891 is a satellite in SSO that was launched on Fri, 20 Dec 2019 UTC launched from the Taiyaun Space Center, China (TSC). Unknown objects in Earth's orbit typically refer to objects detected orbiting the Earth but have not yet been identified or cataloged. These objects could be anything from previously untracked satellites, spent rocket stages, debris from satellite collisions, or even natural meteoroids temporarily captured by Earth's gravity.

Loading next visibility...
Identifier
44891, 2019-093N
Orbit
SSO
Country
Flag of TBDTBD
Related business
Manufacturer
SAST
Mission
Spacecraft
Bus & Motor
Unknown
Mass
Unknown
Launch date (UTC)
2019-12-20 (6 years ago)
Launch vehicle
Unknown
Launch site
Taiyaun Space Center, China (TSC)
Object type
Unknown
Shape & HBR
Unknown
Radar Cross Section
Small (<0.1 m²)

Expand to show TLE details & history
Last TLE update: 15 hours ago

TLE from 15 hours ago
0 OBJECT N
1 44891U 19093N   25261.23240546  .00017140  00000-0  80993-3 0  9995
2 44891  98.0348  41.6158 0008260 270.5919  89.4368 15.19459679313263
Epoch: 2025-09-18T05:34Z
TLE epoch observation values (Epoch: 2025-09-18T05:34:39.831Z)
Latitude
0.00001°
Longitude
-39.44712°
Altitude
510.492 km
Speed
7.609 km/s
True Right ascension
02h 46m 27s
True Declination
0° 00' 00"
Sunlit
Object was in full shadow at epoch
Visualization orbit readout
Latitude
Unknown
Longitude
Unknown
Altitude
Unknown
Speed
Unknown
Apparent Right ascension
Unknown
Apparent Declination
Unknown
Sunlit
N/A
Visualization observer readout
Local Sidereal Time
13:41:22
Azimuth
Unknown
Elevation
Unknown
Doppler factor
Unknown
Orbital elements
Apogee altitude
510.152 km
Perigee altitude
498.782 km
Semi-major axis
6,882.604 km
Eccentricity
0.00083
Inclination
98.0348°
RAAN
41.6158°
Arg. of periapsis
270.5919°
True anomaly
89.53145°
Mean anomaly
89.4368°
Eccentric anomaly
89.48412°
Mean motion
3.80114 °/min
Orbital period
94.71 mins
BSTAR
0.00080993
Loading maneuver chart data...
Computing Atmospheric mass density...
Loading historical data...
Loading historical data...
Loading historical data...
Loading historical data...
Loading historical data...
Loading historical data...
Loading historical data...

Documentation

Showing up to 5 results
|